RJGGRJFM

Guest
Details From RJGG - CHUBU CENTRAIR INTL
To RJFM - MIYAZAKI
Flight Number -
Tags generated
Created
Modified
Stats Distance 323 nm / 598 km
Max Altitude 28,000 ft / 8,534 m
Waypoints 6
Social Downloads 2
Likes 0
Share VATSIM

Download

Looking for another format? Having issues loading an existing format? Contact us
Advertisement - Login to hide

Notes

Basic altitude profile: - Ascent Rate: 2500ft/min - Ascent Speed: 250kts - Cruise Altitude: 28000ft - Cruise Speed: 420kts - Descent Rate: 1500ft/min - Descent Speed: 250kts

Route

RJGG GBE V71 SUC RJFM

ID Type Via Altitude Latitude Longitude Leg Dist Tot Dist Heading (true) Name
O RJGG APT - 0 ft / 0 m 34.85841˚ 136.80541˚ - 0 nm - CHUBU CENTRAIR INTL
GBE VOR - 28,000 ft / 8,534 m 33.91010˚ 135.10618˚ 101 nm 101 nm 236° / 235° GOBOH VOR-DME
KAIFU FIX V71 (AWY-HI) 28,000 ft / 8,534 m 33.60279˚ 134.54201˚ 33 nm 135 nm 237° / 237° -
RYOMA FIX V71 (AWY-HI) 28,000 ft / 8,534 m 33.51030˚ 134.37620˚ 9 nm 145 nm 236° / 236° -
SUC VOR V71 (AWY-HI) 20,200 ft / 6,157 m 32.75597˚ 132.99664˚ 82 nm 228 nm 237° / 236° SHIMIZU VOR-DME
O RJFM APT - 0 ft / 0 m 31.87713˚ 131.44845˚ 94 nm 322 nm 237° / 236° MIYAZAKI

Altitude Profile

Advertisement - Login to hide

Weather


0- 5 10 15 20 25 30 35+ Temperature / ° C

Clouds and Precipitation
Forecast for 2017-12-15 00:00 UTC. Updated 2 hours ago

Ground ~20,000 ft ~40,000 ft Winds

RJGG

Details ICAO RJGG (NGO)
Name CHUBU CENTRAIR INTL
Region Japan
Timezone Asia/Tokyo (UTC+9.0)
Stats Elevation 15 ft / 5 m (AMSL)
Location 34.858414° 136.805408°
Runways 1
Magnetic Variation 7.581° W

METAR

RJGG 150030Z 30005KT 260V340 9999 FEW020 07/01 Q1025 NOSIG

Decode

TAF

TAF RJGG 142305Z 1500/1606 32008KT 9999 FEW030

Decode

Departure Runways

ID Width Length Bearing (true) Bearing (mag) Surface Threshold Offset Overrun Length
18 197 ft / 60 m 11,511 ft / 3,509 m 168.81° 176.39° Asphalt 0 ft / 0 m 197 ft / 60 m
36 197 ft / 60 m 11,511 ft / 3,509 m 348.81° 356.39° Asphalt 0 ft / 0 m 197 ft / 60 m

RJFM

Details ICAO RJFM (KMI)
Name MIYAZAKI
Region Japan
Timezone Asia/Tokyo (UTC+9.0)
Stats Elevation 20 ft / 6 m (AMSL)
Location 31.877128° 131.448447°
Runways 1
Magnetic Variation 6.933° W

METAR

RJFM 150000Z 28006KT 9999 FEW030 SCT040 BKN050 08/03 Q1025

Decode

TAF

TAF RJFM 142306Z 1500/1606 29007KT 9999 FEW030 SCT040 BKN050

Decode

Destination Runways

ID Width Length Bearing (true) Bearing (mag) Surface Threshold Offset Overrun Length
09 150 ft / 46 m 8,187 ft / 2,496 m 85.16° 92.09° Asphalt 0 ft / 0 m 200 ft / 61 m
27 150 ft / 46 m 8,187 ft / 2,496 m 265.18° 272.11° Asphalt 0 ft / 0 m 200 ft / 61 m

Approach Navaids

Runway Type Ident Frequency Range Bearing (true) Bearing (mag) Slope Elevation
27 Localiser IMZ 108.90 MHz 18 nm / 33 km 265.16° 272.10° - 54 ft / 16 m (AMSL)
27 Glidescope IMZ 108.90 MHz 10 nm / 19 km 265.17° 272.10° 3.00° 54 ft / 16 m (AMSL)
27 DME IMZ 108.90 MHz 18 nm / 33 km - - - 34 ft / 10 m (AMSL)

Popular Alternatives